period_start,C,m1,H,J0,J1,J2,J3,J4,J5,JA,JB,JC,JD,JJ,JK,JN,#
2015-07-17 00:00:13,0.01,0.13,0.00,25.03,29.00,31.54,4.68,25.59,1004.42,2030.92,3425.07,3267.04,3545.03,350.07,341.15,26.76,0000 0000 0000 0000 000000
2015-07-17 00:05:14,0.01,0.13,0.00,25.02,28.99,31.51,4.70,25.61,1004.42,2030.94,3425.11,3267.05,3545.10,350.37,341.60,26.79,0000 0000 0000 0000 000000
2015-07-17 00:10:15,-0.02,0.13,0.00,25.01,28.97,31.49,4.66,25.57,1004.41,2030.97,3425.28,3267.22,3545.25,349.92,340.99,26.82,0000 0000 0000 0000 000000
2015-07-17 00:15:16,-0.02,0.13,0.00,24.99,28.95,31.45,4.67,25.58,1004.41,2030.99,3425.60,3267.50,3545.66,350.28,341.29,26.85,0000 0000 0000 0000 000000
2015-07-17 00:20:18,-0.03,0.13,0.00,24.97,28.94,31.47,4.74,25.68,1004.42,2030.99,3425.90,3267.85,3545.94,350.16,341.57,26.88,0000 0000 0000 0000 000000
2015-07-17 00:25:19,0.00,0.13,0.00,24.95,28.92,31.48,4.72,25.80,1004.41,2030.99,3425.79,3267.93,3545.96,349.99,341.26,26.91,0000 0000 0000 0000 000000
2015-07-17 00:30:20,-0.01,0.13,0.00,24.87,28.90,31.50,4.68,25.55,1004.41,2031.00,3425.89,3267.97,3545.98,350.05,341.18,26.94,0000 0000 0000 0000 000000
2015-07-17 00:35:21,0.01,0.13,0.00,24.82,28.88,31.50,4.61,25.54,1004.41,2031.03,3425.99,3267.99,3546.01,349.74,341.12,26.97,0000 0000 0000 0000 000000
2015-07-17 00:40:22,0.00,0.13,0.00,24.76,28.86,31.53,4.67,25.65,1004.41,2031.12,3425.99,3268.01,3546.09,349.59,341.11,27.00,0000 0000 0000 0000 000000
2015-07-17 00:45:24,0.05,0.13,0.00,24.69,28.84,31.51,4.73,25.62,1004.41,2031.47,3426.00,3268.08,3546.48,350.06,341.65,27.03,0000 0000 0000 0000 000000
2015-07-17 00:50:25,0.02,0.13,0.00,24.63,28.81,31.50,4.69,25.55,1004.41,2031.82,3426.04,3268.51,3546.90,350.30,341.87,27.06,0000 0000 0000 0000 000000
2015-07-17 00:55:26,-0.00,0.13,0.00,24.60,28.79,31.46,4.66,25.60,1004.41,2031.98,3426.18,3268.95,3546.99,349.23,340.91,27.09,0000 0000 0000 0000 000000
2015-07-17 01:00:27,-0.01,0.13,0.00,24.60,28.76,31.40,4.71,25.42,1004.40,2031.99,3426.35,3268.98,3546.99,349.56,341.26,27.11,0000 0000 0000 0000 000000
2015-07-17 01:05:28,-0.01,0.13,0.00,24.58,28.72,31.35,4.66,25.71,1004.34,2031.99,3426.84,3269.00,3547.06,349.95,341.57,27.14,0000 0000 0000 0000 000000
2015-07-17 01:10:29,-0.01,0.13,0.00,24.56,28.69,31.32,4.69,25.54,1004.27,2031.99,3426.99,3269.02,3547.41,350.19,341.96,27.17,0000 0000 0000 0000 000000
2015-07-17 01:15:31,-0.02,0.13,0.00,24.53,28.66,31.29,4.72,25.53,1004.38,2032.01,3426.99,3269.35,3547.94,350.43,342.32,27.20,0000 0000 0000 0000 000000
2015-07-17 01:20:32,0.01,0.13,0.00,24.51,28.63,31.27,4.68,25.51,1004.19,2032.13,3427.00,3269.89,3547.99,350.18,341.88,27.23,0000 0000 0000 0000 000000
2015-07-17 01:25:33,0.08,0.13,0.00,24.50,28.60,31.21,4.68,25.67,1003.96,2032.59,3427.01,3269.99,3548.00,350.15,341.72,27.26,0000 0000 0000 0000 000000
2015-07-17 01:30:34,0.00,0.13,0.00,24.49,28.57,31.18,4.68,25.58,1003.94,2032.93,3427.42,3270.00,3548.40,349.35,341.30,27.29,0000 0000 0000 0000 000000
2015-07-17 01:35:35,-0.01,0.13,0.00,24.47,28.54,31.16,4.66,25.57,1003.92,2032.99,3427.92,3270.05,3548.91,349.32,340.96,27.32,0000 0000 0000 0000 000000
2015-07-17 01:40:37,-0.03,0.13,0.00,24.46,28.51,31.13,4.71,25.52,1003.92,2032.99,3427.98,3270.43,3548.98,349.92,341.58,27.35,0000 0000 0000 0000 000000
2015-07-17 01:45:38,-0.00,0.13,0.00,24.45,28.48,31.09,4.71,25.63,1003.92,2033.00,3427.99,3270.95,3548.99,350.16,341.82,27.38,0000 0000 0000 0000 000000
2015-07-17 01:50:39,0.00,0.13,0.00,24.44,28.46,31.05,4.73,25.63,1003.85,2033.00,3427.99,3270.96,3548.99,349.65,341.31,27.41,0000 0000 0000 0000 000000
2015-07-17 01:55:41,0.01,0.13,0.00,24.42,28.43,31.01,4.68,25.57,1003.78,2033.03,3428.01,3270.99,3549.03,350.38,342.12,27.44,0000 0000 0000 0000 000000
2015-07-17 02:00:42,0.03,0.13,0.00,24.42,28.40,31.00,4.69,25.60,1003.62,2033.21,3428.06,3270.99,3549.37,349.80,341.42,27.47,0000 0000 0000 0000 000000
2015-07-17 02:05:43,0.01,0.13,0.00,24.40,28.38,30.98,4.71,25.62,1003.44,2033.41,3428.12,3271.02,3549.67,350.72,342.27,27.50,0000 0000 0000 0000 000000
2015-07-17 02:10:44,0.05,0.13,0.00,24.40,28.35,30.95,4.72,25.65,1003.43,2033.78,3428.44,3271.12,3549.93,350.23,341.79,27.52,0000 0000 0000 0000 000000
2015-07-17 02:15:45,-0.03,0.13,0.00,24.40,28.33,30.90,4.73,25.58,1003.43,2033.95,3428.88,3271.71,3549.99,349.75,341.36,27.55,0000 0000 0000 0000 000000
2015-07-17 02:20:47,-0.00,0.13,0.00,24.40,28.31,30.88,4.69,25.53,1003.44,2033.99,3428.98,3271.96,3549.99,349.88,341.64,27.58,0000 0000 0000 0000 000000
2015-07-17 02:25:48,0.00,0.13,0.00,24.38,28.29,30.85,4.68,25.71,1003.45,2033.99,3428.99,3271.98,3550.02,349.77,341.58,27.61,0000 0000 0000 0000 000000
2015-07-17 02:30:49,-0.00,0.13,0.00,24.37,28.26,30.84,4.68,25.63,1003.44,2034.00,3428.99,3271.99,3550.21,349.72,341.32,27.64,0000 0000 0000 0000 000000
2015-07-17 02:35:50,-0.00,0.13,0.00,24.37,28.25,30.80,4.67,25.63,1003.45,2034.01,3428.99,3272.00,3550.65,350.06,341.67,27.67,0000 0000 0000 0000 000000
2015-07-17 02:40:51,-0.01,0.13,0.00,24.37,28.22,30.77,4.67,25.59,1003.48,2034.04,3429.09,3272.14,3550.97,349.94,341.55,27.70,0000 0000 0000 0000 000000
2015-07-17 02:45:52,0.00,0.13,0.00,24.37,28.21,30.76,4.72,25.66,1003.45,2034.08,3429.17,3272.34,3550.99,350.30,341.81,27.73,0000 0000 0000 0000 000000
2015-07-17 02:50:53,0.01,0.13,0.00,24.35,28.20,30.75,4.66,25.60,1003.57,2034.28,3429.41,3272.75,3550.99,349.69,341.30,27.76,0000 0000 0000 0000 000000
2015-07-17 02:55:55,0.06,0.13,0.00,24.36,28.17,30.76,4.75,25.63,1003.44,2034.81,3429.66,3272.94,3551.02,350.74,342.28,27.79,0000 0000 0000 0000 000000
2015-07-17 03:00:56,-0.00,0.13,0.00,24.36,28.17,30.72,4.75,25.53,1003.44,2034.83,3429.74,3272.97,3551.02,350.05,341.67,27.82,0000 0000 0000 0000 000000
2015-07-17 03:05:56,0.00,0.13,0.00,24.36,28.15,30.69,4.59,25.63,1003.43,2034.95,3429.91,3272.98,3551.18,349.52,341.20,27.85,0000 0000 0000 0000 000000
2015-07-17 03:10:58,-0.01,0.13,0.00,24.37,28.15,30.69,4.71,25.62,1003.43,2034.98,3429.95,3272.99,3551.48,349.91,341.58,27.88,0000 0000 0000 0000 000000
2015-07-17 03:15:59,-0.00,0.13,0.00,24.35,28.12,30.69,4.69,25.65,1003.43,2034.99,3429.96,3272.99,3551.76,350.60,341.87,27.91,0000 0000 0000 0000 000000
2015-07-17 03:21:00,-0.00,0.13,0.00,24.35,28.12,30.61,4.67,25.50,1003.43,2034.99,3429.97,3272.99,3551.93,349.96,341.58,27.93,0000 0000 0000 0000 000000
2015-07-17 03:26:01,0.00,0.13,0.00,24.36,28.10,30.61,4.69,25.68,1003.43,2034.99,3429.98,3273.00,3551.95,349.85,341.60,27.96,0000 0000 0000 0000 000000
2015-07-17 03:31:02,0.00,0.13,0.00,24.37,28.10,30.60,4.67,25.68,1003.42,2034.99,3429.98,3273.01,3551.97,349.94,341.48,27.99,0000 0000 0000 0000 000000
2015-07-17 03:36:03,0.00,0.13,0.00,24.37,28.08,30.58,4.65,25.65,1003.43,2034.99,3429.99,3273.03,3551.99,349.97,341.90,28.02,0000 0000 0000 0000 000000
2015-07-17 03:41:05,-0.00,0.13,0.00,24.37,28.07,30.55,4.76,25.59,1003.37,2035.00,3429.98,3273.07,3551.99,350.19,342.04,28.05,0000 0000 0000 0000 000000
2015-07-17 03:46:06,0.00,0.13,0.00,24.37,28.07,30.52,4.69,25.51,1003.37,2035.00,3429.99,3273.20,3551.99,350.06,341.81,28.08,0000 0000 0000 0000 000000
2015-07-17 03:51:07,0.00,0.13,0.00,24.37,28.05,30.51,4.73,25.61,1003.37,2035.01,3430.00,3273.15,3551.99,350.00,341.65,28.11,0000 0000 0000 0000 000000
2015-07-17 03:56:08,0.00,0.13,0.00,24.37,28.05,30.51,4.68,25.53,1003.23,2035.02,3430.00,3273.18,3551.99,350.03,341.30,28.14,0000 0000 0000 0000 000000
2015-07-17 04:01:10,0.00,0.13,0.00,24.37,28.05,30.49,4.73,25.59,1003.05,2035.00,3430.00,3273.07,3551.99,350.02,341.65,28.17,0000 0000 0000 0000 000000
2015-07-17 04:06:11,-0.00,0.13,0.00,24.37,28.03,30.48,4.67,25.66,1003.11,2035.01,3430.00,3273.20,3551.99,349.99,341.47,28.20,0000 0000 0000 0000 000000
2015-07-17 04:11:12,-0.01,0.13,0.00,24.37,28.02,30.48,4.69,25.52,1003.06,2035.04,3430.00,3273.50,3551.99,350.33,341.67,28.23,0000 0000 0000 0000 000000
2015-07-17 04:16:13,-0.01,0.13,0.00,24.38,28.02,30.46,4.64,25.55,1002.95,2035.04,3430.01,3273.73,3551.99,349.74,340.94,28.26,0000 0000 0000 0000 000000
2015-07-17 04:21:14,0.01,0.13,0.00,24.38,28.02,30.43,4.66,25.63,1002.96,2035.04,3430.00,3273.58,3551.99,349.81,341.28,28.29,0000 0000 0000 0000 000000
2015-07-17 04:26:15,-0.00,0.13,0.00,24.39,28.02,30.44,4.71,25.67,1002.97,2035.05,3430.00,3273.45,3551.99,349.76,341.23,28.32,0000 0000 0000 0000 000000
2015-07-17 04:31:16,0.02,0.13,0.00,24.39,28.00,30.42,4.65,25.58,1003.00,2035.23,3429.99,3273.83,3551.99,349.69,341.08,28.34,0000 0000 0000 0000 000000
2015-07-17 04:36:18,0.00,0.13,0.00,24.39,28.00,30.42,4.64,25.67,1003.18,2035.33,3429.99,3273.83,3551.99,349.27,340.59,28.37,0000 0000 0000 0000 000000
2015-07-17 04:41:19,0.04,0.14,0.00,24.40,28.00,30.41,4.67,25.37,1003.28,2035.56,3430.00,3273.90,3552.00,350.02,341.47,28.40,0000 0000 0000 0000 000000
2015-07-17 04:46:20,0.01,0.14,0.00,24.40,28.00,30.40,4.61,25.52,1003.04,2035.71,3430.00,3273.95,3552.01,349.71,341.05,28.43,0000 0000 0000 0000 000000
2015-07-17 04:51:22,0.03,0.14,0.00,24.40,28.00,30.41,4.72,25.62,1002.96,2035.83,3430.00,3273.98,3552.02,349.97,341.38,28.46,0000 0000 0000 0000 000000
2015-07-17 04:56:23,-0.00,0.14,0.00,24.40,28.00,30.39,4.72,25.58,1002.94,2035.86,3430.00,3273.95,3552.01,349.96,341.45,28.49,0000 0000 0000 0000 000000
2015-07-17 05:01:24,0.01,0.14,0.00,24.40,28.00,30.39,4.69,25.52,1002.93,2035.92,3430.00,3273.96,3552.01,350.59,342.04,28.52,0000 0000 0000 0000 000000
2015-07-17 05:06:25,0.01,0.14,0.00,24.40,27.99,30.39,4.77,25.65,1002.94,2035.95,3429.99,3273.98,3552.02,350.48,341.79,28.55,0000 0000 0000 0000 000000
2015-07-17 05:11:26,-0.01,0.14,0.00,24.40,27.99,30.39,4.71,25.62,1002.94,2035.92,3430.00,3273.94,3552.00,350.70,342.03,28.58,0000 0000 0000 0000 000000
2015-07-17 05:16:27,0.01,0.14,0.00,24.40,27.98,30.39,4.75,25.68,1002.94,2035.97,3429.99,3273.96,3552.01,350.68,342.11,28.61,0000 0000 0000 0000 000000
2015-07-17 05:21:29,0.00,0.14,0.00,24.40,27.97,30.39,4.76,25.61,1002.94,2035.97,3429.99,3273.96,3552.00,350.66,342.01,28.64,0000 0000 0000 0000 000000
2015-07-17 05:26:30,0.00,0.14,0.00,24.40,27.97,30.38,4.64,25.68,1003.01,2035.97,3429.99,3273.96,3552.00,349.63,341.07,28.67,0000 0000 0000 0000 000000
2015-07-17 05:31:31,0.00,0.14,0.00,24.40,27.97,30.39,4.71,25.53,1003.23,2035.97,3429.99,3273.97,3552.01,350.50,341.95,28.70,0000 0000 0000 0000 000000
2015-07-17 05:36:32,0.00,0.14,0.00,24.40,27.97,30.38,4.69,25.51,1002.99,2035.98,3429.97,3273.94,3552.00,349.85,341.37,28.73,0000 0000 0000 0000 000000
2015-07-17 05:41:34,0.01,0.14,0.00,24.40,27.97,30.37,4.67,25.68,1002.95,2035.98,3429.93,3273.89,3552.00,349.46,340.91,28.75,0000 0000 0000 0000 000000
2015-07-17 05:46:35,0.00,0.14,0.00,24.40,27.97,30.38,4.64,25.59,1002.95,2035.95,3429.91,3273.82,3552.00,350.01,341.35,28.78,0000 0000 0000 0000 000000
2015-07-17 05:51:36,0.01,0.14,0.00,24.40,27.97,30.37,4.67,25.57,1003.12,2035.94,3429.78,3273.59,3552.00,350.28,341.76,28.81,0000 0000 0000 0000 000000
2015-07-17 05:56:37,0.00,0.14,0.00,24.40,27.97,30.38,4.74,25.54,1002.99,2035.96,3429.77,3273.63,3552.00,350.72,342.01,28.84,0000 0000 0000 0000 000000
2015-07-17 06:01:38,-0.00,0.14,0.00,24.42,27.97,30.38,4.67,25.46,1002.96,2035.98,3429.80,3273.80,3552.00,350.37,341.79,28.87,0000 0000 0000 0000 000000
2015-07-17 06:06:39,0.03,0.14,0.00,24.42,27.97,30.36,4.62,25.46,1002.95,2035.98,3429.23,3273.51,3551.99,349.40,340.77,28.90,0000 0000 0000 0000 000000
2015-07-17 06:11:41,-0.01,0.14,0.00,24.42,27.97,30.36,4.67,25.42,1002.97,2035.99,3429.03,3273.67,3551.99,349.54,340.94,28.93,0000 0000 0000 0000 000000
2015-07-17 06:16:42,0.02,0.14,0.00,24.41,27.97,30.37,4.72,25.51,1003.03,2035.99,3429.01,3273.45,3551.98,350.41,341.85,28.96,0000 0000 0000 0000 000000
2015-07-17 06:21:43,0.00,0.14,0.00,24.40,27.97,30.38,4.67,25.59,1003.06,2035.99,3429.00,3273.23,3551.98,350.19,341.72,28.99,0000 0000 0000 0000 000000
2015-07-17 06:26:44,0.01,0.14,0.00,24.40,27.97,30.39,4.69,25.56,1003.00,2035.99,3428.99,3273.08,3551.92,350.19,341.41,29.02,0000 0000 0000 0000 000000
2015-07-17 06:31:45,0.00,0.14,0.00,24.40,27.97,30.37,4.65,25.55,1003.03,2035.99,3428.99,3273.06,3551.90,349.86,341.09,29.05,0000 0000 0000 0000 000000
2015-07-17 06:36:47,-0.01,0.14,0.00,24.40,27.97,30.39,4.70,25.57,1002.95,2035.99,3428.99,3273.13,3551.95,350.51,342.01,29.08,0000 0000 0000 0000 000000
2015-07-17 06:41:48,0.00,0.14,0.00,24.40,27.97,30.38,4.72,25.65,1002.98,2035.98,3428.99,3273.09,3551.93,350.38,341.78,29.11,0000 0000 0000 0000 000000
2015-07-17 06:46:49,0.00,0.14,0.00,24.41,27.97,30.38,4.75,25.57,1002.99,2035.99,3428.99,3273.11,3551.91,350.68,341.54,29.14,0000 0000 0000 0000 000000
2015-07-17 06:51:50,0.00,0.14,0.00,24.41,27.97,30.37,4.62,25.44,1002.97,2035.99,3428.99,3273.09,3551.96,349.81,341.21,29.16,0000 0000 0000 0000 000000
2015-07-17 06:56:51,0.00,0.14,0.00,24.41,27.97,30.39,4.66,25.44,1003.03,2035.99,3428.99,3273.09,3551.89,349.95,341.29,29.19,0000 0000 0000 0000 000000
2015-07-17 07:01:52,-0.00,0.14,0.00,24.42,27.97,30.37,4.61,25.53,1003.10,2035.99,3428.98,3273.05,3551.92,349.32,340.66,29.22,0000 0000 0000 0000 000000
2015-07-17 07:06:54,0.01,0.14,0.00,24.44,27.97,30.38,4.78,25.63,1002.97,2035.99,3428.94,3273.02,3551.66,350.18,341.34,29.25,0000 0000 0000 0000 000000
2015-07-17 07:11:55,-0.00,0.14,0.00,24.45,27.97,30.38,4.67,25.51,1003.02,2035.98,3428.95,3273.03,3551.57,349.56,341.02,29.28,0000 0000 0000 0000 000000
2015-07-17 07:16:56,0.01,0.14,0.00,24.46,27.97,30.37,4.70,25.47,1003.06,2035.99,3428.87,3273.01,3551.40,350.11,341.32,29.31,0000 0000 0000 0000 000000
2015-07-17 07:21:57,0.01,0.14,0.00,24.47,27.97,30.37,4.66,25.55,1003.26,2035.99,3428.59,3273.00,3551.08,350.37,341.85,29.34,0000 0000 0000 0000 000000
2015-07-17 07:26:59,0.01,0.14,0.00,24.47,27.98,30.37,4.59,25.53,1003.03,2035.99,3428.20,3273.00,3551.05,349.94,341.48,29.37,0000 0000 0000 0000 000000
2015-07-17 07:32:00,0.00,0.14,0.00,24.47,27.99,30.37,4.69,25.35,1003.00,2035.99,3428.25,3273.00,3551.04,350.02,341.35,29.40,0000 0000 0000 0000 000000
2015-07-17 07:37:01,-0.00,0.14,0.00,24.47,27.99,30.37,4.74,25.57,1003.01,2035.99,3428.12,3273.00,3551.01,350.41,341.52,29.43,0000 0000 0000 0000 000000
2015-07-17 07:42:02,-0.00,0.14,0.00,24.48,28.00,30.37,4.73,25.54,1003.01,2035.99,3428.12,3273.00,3551.01,350.36,341.77,29.46,0000 0000 0000 0000 000000
2015-07-17 07:47:04,-0.00,0.14,0.00,24.50,28.00,30.37,4.70,25.56,1002.97,2035.98,3428.05,3273.00,3551.00,350.47,341.87,29.49,0000 0000 0000 0000 000000
2015-07-17 07:52:05,0.00,0.14,0.00,24.50,28.00,30.38,4.59,25.40,1002.95,2035.97,3428.05,3273.00,3551.01,350.04,341.43,29.52,0000 0000 0000 0000 000000
2015-07-17 07:57:06,0.00,0.14,0.00,24.50,28.00,30.39,4.67,25.32,1003.12,2035.98,3428.05,3273.00,3551.00,350.38,341.78,29.55,0000 0000 0000 0000 000000
2015-07-17 08:02:07,0.00,0.14,0.00,24.50,28.00,30.39,4.68,25.51,1003.30,2035.99,3428.03,3273.00,3551.00,350.08,341.39,29.57,0000 0000 0000 0000 000000
2015-07-17 08:07:09,0.00,0.14,0.00,24.50,28.00,30.39,4.68,25.40,1003.31,2035.98,3428.00,3272.97,3550.99,350.05,341.67,29.60,0000 0000 0000 0000 000000
2015-07-17 08:12:10,0.00,0.14,0.00,24.50,28.02,30.41,4.67,25.50,1003.12,2035.96,3427.99,3272.97,3550.96,350.40,341.75,29.63,0000 0000 0000 0000 000000
2015-07-17 08:17:11,0.00,0.14,0.00,24.50,28.02,30.39,4.73,25.57,1003.19,2035.96,3427.98,3272.88,3550.89,350.37,341.63,29.66,0000 0000 0000 0000 000000
2015-07-17 08:22:13,0.00,0.14,0.00,24.50,28.02,30.40,4.71,25.50,1003.39,2035.95,3427.98,3272.81,3550.78,349.69,341.22,29.69,0000 0000 0000 0000 000000
2015-07-17 08:27:14,0.03,0.14,0.00,24.50,28.02,30.42,4.70,25.66,1003.38,2035.92,3427.79,3272.45,3550.29,349.95,341.60,29.72,0000 0000 0000 0000 000000
2015-07-17 08:32:15,0.01,0.14,0.00,24.51,28.02,30.41,4.70,25.43,1003.43,2035.92,3427.63,3272.33,3550.20,350.07,341.51,29.75,0000 0000 0000 0000 000000
2015-07-17 08:37:16,-0.01,0.14,0.00,24.52,28.02,30.41,4.68,25.62,1003.43,2035.83,3427.22,3272.08,3550.03,349.99,341.35,29.78,0000 0000 0000 0000 000000
2015-07-17 08:42:17,0.00,0.14,0.00,24.51,28.02,30.40,4.59,25.48,1003.43,2035.83,3427.03,3272.04,3550.01,350.19,341.77,29.81,0000 0000 0000 0000 000000
2015-07-17 08:47:19,0.01,0.14,0.00,24.51,28.04,30.42,4.64,25.34,1003.43,2035.87,3427.03,3272.03,3550.01,350.69,342.29,29.84,0000 0000 0000 0000 000000
2015-07-17 08:52:20,-0.00,0.14,0.00,24.52,28.05,30.41,4.66,25.45,1003.44,2035.89,3427.03,3272.02,3550.01,350.30,341.71,29.87,0000 0000 0000 0000 000000
2015-07-17 08:57:21,0.01,0.14,0.00,24.52,28.05,30.43,4.71,25.38,1003.43,2035.92,3427.01,3272.04,3550.01,349.79,341.29,29.90,0000 0000 0000 0000 000000
2015-07-17 09:02:23,-0.03,0.14,0.00,24.52,28.05,30.45,4.71,25.55,1003.43,2035.80,3427.00,3272.01,3550.00,350.09,341.51,29.93,0000 0000 0000 0000 000000
2015-07-17 09:07:24,0.03,0.14,0.00,24.52,28.05,30.45,4.65,25.50,1003.47,2035.93,3427.00,3272.01,3550.00,349.90,341.39,29.96,0000 0000 0000 0000 000000
2015-07-17 09:12:25,-0.04,0.14,0.00,24.52,28.05,30.45,4.66,25.38,1003.86,2035.80,3426.99,3272.00,3549.99,349.61,341.19,29.99,0000 0000 0000 0000 000000
2015-07-17 09:17:26,0.00,0.14,0.00,24.52,28.05,30.43,4.70,25.52,1003.85,2035.70,3426.95,3272.00,3549.98,350.15,341.72,30.01,0000 0000 0000 0000 000000
2015-07-17 09:22:27,0.00,0.14,0.00,24.52,28.05,30.42,4.66,25.52,1003.87,2035.77,3426.81,3272.00,3549.97,350.12,341.59,30.04,0000 0000 0000 0000 000000
2015-07-17 09:27:29,-0.03,0.14,0.00,24.52,28.05,30.44,4.68,25.53,1003.89,2035.44,3426.19,3271.98,3549.79,350.24,342.04,30.07,0000 0000 0000 0000 000000
2015-07-17 09:32:30,0.03,0.14,0.00,24.51,28.07,30.45,4.72,25.43,1003.85,2035.44,3426.05,3271.96,3549.69,350.29,341.99,30.10,0000 0000 0000 0000 000000
2015-07-17 09:37:31,-0.00,0.14,0.00,24.52,28.07,30.45,4.67,25.41,1003.91,2035.45,3426.01,3271.92,3549.45,350.18,341.62,30.13,0000 0000 0000 0000 000000
2015-07-17 09:42:33,0.03,0.14,0.00,24.52,28.07,30.46,4.72,25.44,1003.82,2035.52,3426.00,3271.84,3549.22,349.94,341.66,30.16,0000 0000 0000 0000 000000
2015-07-17 09:47:34,0.01,0.14,0.00,24.54,28.07,30.44,4.71,25.38,1003.89,2035.58,3426.00,3271.83,3549.18,349.99,341.52,30.19,0000 0000 0000 0000 000000
2015-07-17 09:52:36,-0.02,0.14,0.00,24.53,28.07,30.47,4.73,25.42,1003.92,2035.41,3426.00,3271.49,3549.06,349.83,341.31,30.22,0000 0000 0000 0000 000000
2015-07-17 09:57:37,0.01,0.14,0.00,24.52,28.07,30.47,4.62,25.41,1003.92,2035.35,3426.00,3271.34,3549.02,349.36,341.18,30.25,0000 0000 0000 0000 000000
2015-07-17 10:02:38,-0.01,0.14,0.00,24.52,28.07,30.46,4.76,25.35,1003.92,2035.35,3425.99,3271.34,3549.03,350.70,342.24,30.28,0000 0000 0000 0000 000000
2015-07-17 10:07:40,0.03,0.14,0.00,24.55,28.08,30.48,4.67,25.35,1003.92,2035.39,3425.97,3271.10,3549.00,350.17,341.93,30.31,0000 0000 0000 0000 000000
2015-07-17 10:12:41,-0.02,0.14,0.00,24.54,28.09,30.48,4.68,25.37,1003.93,2035.36,3425.95,3271.09,3549.00,350.07,341.52,30.34,0000 0000 0000 0000 000000
2015-07-17 10:17:42,0.00,0.14,0.00,24.52,28.09,30.48,4.68,25.28,1003.94,2035.18,3425.52,3271.01,3548.99,349.79,341.40,30.37,0000 0000 0000 0000 000000
2015-07-17 10:22:43,0.06,0.14,0.00,24.52,28.10,30.48,4.73,25.44,1003.92,2035.32,3425.01,3270.97,3548.73,350.33,342.02,30.40,0000 0000 0000 0000 000000
2015-07-17 10:27:44,-0.01,0.14,0.00,24.52,28.10,30.48,4.71,25.63,1003.92,2035.09,3424.57,3270.59,3548.03,350.30,341.86,30.42,0000 0000 0000 0000 000000
2015-07-17 10:32:45,0.02,0.14,0.00,24.53,28.10,30.47,4.70,25.44,1003.92,2035.29,3424.83,3270.81,3548.04,350.16,341.58,30.45,0000 0000 0000 0000 000000
2015-07-17 10:37:47,0.01,0.14,0.00,24.53,28.10,30.48,4.76,25.52,1003.94,2035.24,3424.68,3270.72,3548.03,350.48,342.06,30.48,0000 0000 0000 0000 000000
2015-07-17 10:42:48,0.00,0.15,0.00,24.52,28.10,30.50,4.74,25.44,1003.93,2035.28,3424.44,3270.50,3548.03,350.17,341.73,30.51,0000 0000 0000 0000 000000
2015-07-17 10:47:49,0.00,0.15,0.00,24.52,28.10,30.49,4.67,25.43,1003.92,2035.16,3424.11,3270.29,3548.01,349.92,341.37,30.54,0000 0000 0000 0000 000000
2015-07-17 10:52:51,0.01,0.15,0.00,24.52,28.10,30.49,4.69,25.46,1003.93,2035.14,3424.02,3270.06,3548.00,349.73,341.42,30.57,0000 0000 0000 0000 000000
2015-07-17 10:57:52,-0.01,0.15,0.00,24.53,28.10,30.51,4.70,25.48,1003.94,2035.13,3424.00,3270.03,3548.00,350.12,341.71,30.60,0000 0000 0000 0000 000000
2015-07-17 11:02:53,0.00,0.15,0.00,24.54,28.11,30.49,4.66,25.38,1003.95,2035.13,3424.00,3270.00,3547.99,349.55,341.18,30.63,0000 0000 0000 0000 000000
2015-07-17 11:07:54,0.00,0.15,0.00,24.52,28.12,30.51,4.67,25.32,1003.95,2035.14,3423.99,3270.01,3547.97,350.13,341.69,30.66,0000 0000 0000 0000 000000
2015-07-17 11:12:56,-0.01,0.15,0.00,24.52,28.12,30.50,4.71,25.48,1003.96,2035.07,3423.93,3270.00,3547.93,350.04,341.73,30.69,0000 0000 0000 0000 000000
2015-07-17 11:17:57,0.01,0.15,0.00,24.52,28.12,30.50,4.67,25.39,1003.96,2035.07,3423.77,3270.00,3547.79,349.83,341.42,30.72,0000 0000 0000 0000 000000
2015-07-17 11:22:59,0.01,0.15,0.00,24.52,28.12,30.50,4.68,25.47,1003.93,2035.11,3423.65,3270.00,3547.77,350.09,342.03,30.75,0000 0000 0000 0000 000000
2015-07-17 11:28:00,0.01,0.15,0.00,24.52,28.12,30.51,4.72,25.64,1003.92,2035.11,3423.25,3269.99,3547.46,350.13,341.82,30.78,0000 0000 0000 0000 000000
2015-07-17 11:33:01,0.01,0.15,0.00,24.54,28.12,30.52,4.73,25.50,1003.93,2035.14,3423.19,3269.98,3547.42,350.22,341.78,30.81,0000 0000 0000 0000 000000
2015-07-17 11:38:03,0.00,0.15,0.00,24.54,28.12,30.52,4.71,25.44,1003.93,2035.13,3423.03,3269.97,3547.07,350.29,341.72,30.83,0000 0000 0000 0000 000000
2015-07-17 11:43:04,0.00,0.15,0.00,24.54,28.12,30.52,4.66,25.59,1003.94,2035.10,3423.00,3269.97,3547.05,350.23,341.74,30.86,0000 0000 0000 0000 000000
2015-07-17 11:48:05,0.05,0.15,0.00,24.54,28.12,30.51,4.68,25.41,1003.93,2035.11,3422.74,3269.63,3547.01,350.12,341.70,30.89,0000 0000 0000 0000 000000
2015-07-17 11:53:06,0.02,0.15,0.00,24.52,28.12,30.52,4.67,25.44,1003.94,2035.13,3422.02,3269.03,3546.97,349.71,341.31,30.92,0000 0000 0000 0000 000000
2015-07-17 11:58:08,0.11,0.15,0.00,24.53,28.12,30.51,4.70,25.36,1003.94,2035.13,3420.73,3268.30,3546.13,350.28,341.83,30.95,0000 0000 0000 0000 000000
2015-07-17 12:03:09,0.01,0.15,0.00,24.53,28.13,30.52,4.64,25.47,1003.94,2035.17,3420.05,3268.03,3545.95,350.13,341.57,30.98,0000 0000 0000 0000 000000
2015-07-17 12:08:11,-0.01,0.15,0.00,24.55,28.14,30.51,4.68,25.42,1003.94,2035.13,3420.02,3268.02,3545.83,349.28,340.87,31.01,0000 0000 0000 0000 000000
2015-07-17 12:13:12,-0.00,0.15,0.00,24.54,28.14,30.52,4.70,25.52,1003.93,2035.09,3420.00,3268.01,3545.67,349.86,341.59,31.04,0000 0000 0000 0000 000000
2015-07-17 12:18:14,0.01,0.15,0.00,24.52,28.15,30.53,4.67,25.42,1003.94,2035.07,3420.00,3268.00,3545.40,349.61,341.05,31.07,0000 0000 0000 0000 000000
2015-07-17 12:23:15,0.03,0.15,0.00,24.52,28.15,30.52,4.73,25.53,1003.93,2035.09,3419.70,3267.92,3545.06,350.32,341.83,31.10,0000 0000 0000 0000 000000
2015-07-17 12:28:17,0.08,0.16,0.00,24.53,28.15,30.52,4.66,25.63,1003.94,2035.04,3418.58,3267.09,3544.45,350.15,341.86,31.13,0000 0000 0000 0000 000000
2015-07-17 12:33:18,0.03,0.16,0.00,24.53,28.15,30.53,4.74,25.54,1003.94,2035.05,3417.89,3266.82,3544.01,349.93,341.66,31.16,0000 0000 0000 0000 000000
2015-07-17 12:38:19,0.07,0.16,0.00,24.52,28.15,30.54,4.77,25.53,1004.05,2035.06,3417.01,3266.06,3543.43,350.23,341.90,31.19,0000 0000 0000 0000 000000
2015-07-17 12:43:21,0.06,0.16,0.00,24.54,28.15,30.54,4.71,25.33,1004.15,2035.06,3416.08,3265.54,3542.86,350.34,341.98,31.22,0000 0000 0000 0000 000000
2015-07-17 12:48:22,0.06,0.16,0.00,24.52,28.15,30.54,4.68,25.52,1004.03,2035.05,3415.00,3264.92,3542.04,350.15,341.72,31.24,0000 0000 0000 0000 000000
2015-07-17 12:53:23,0.10,0.17,0.00,24.52,28.15,30.54,4.69,25.43,1004.01,2035.07,3413.76,3264.07,3541.18,350.48,342.25,31.27,0000 0000 0000 0000 000000
2015-07-17 12:58:25,0.10,0.17,0.00,24.52,28.15,30.55,4.65,25.48,1004.02,2035.12,3412.45,3263.33,3540.43,350.46,342.11,31.30,0000 0000 0000 0000 000000